Theta_e
295 296 296 295 296 297 297 298 298 300 301 303 305 307 309 312 315 317 318 320 320 320 320 320 319 320 320 320 319 318 316 314 310 312 301 300 297 299 296 296 294 295 294
291 292 292 291 292 292 292 293 294 295 297 298 299 300 302 304 307 309 312 315 316 316 317 318 318 318 318 319 317 314 313 312 310 308 300 296 296 293 296 294 291 291 292
288 288 288 287 287 288 289 290 291 291 293 294 295 295 296 298 299 301 304 306 308 311 314 314 315 315 314 315 312 311 310 308 308 307 300 291 291 290 289 290 291 291 289
286 285 285 284 284 285 286 286 287 289 289 290 291 292 293 294 295 295 295 297 300 304 306 307 304 303 303 303 303 303 302 300 296 299 293 290 290 287 287 289 287 288 288
283 283 282 282 282 283 283 284 285 286 286 288 289 290 290 291 290 290 291 292 294 296 298 298 296 290 289 293 297 296 295 294 290 291 289 287 286 285 286 286 286 286 287
281 280 280 280 280 281 281 282 282 283 284 286 286 287 286 287 289 290 289 289 290 289 289 290 288 287 289 291 292 293 293 291 290 289 287 286 285 286 286 285 284 283 283
279 278 278 278 278 279 280 280 280 281 283 283 283 284 284 286 288 288 287 286 285 285 285 285 285 285 286 287 287 287 286 288 289 289 287 286 285 285 285 283 283 282 282
277 277 276 276 276 277 278 278 279 280 281 281 281 281 282 283 286 286 285 284 283 283 283 283 284 284 285 285 284 283 283 284 284 284 284 284 285 285 285 284 283 282 281
275 275 275 275 275 276 276 276 277 278 280 280 280 279 279 280 285 285 283 283 282 281 282 283 283 283 284 285 283 282 281 281 284 284 284 283 283 283 283 281 279 278 277
273 274 274 274 274 274 274 274 276 277 278 279 278 278 278 279 282 284 283 281 281 281 281 281 283 283 283 284 281 281 280 279 279 279 279 279 281 282 281 279 278 276 276
272 273 273 273 273 274 273 273 274 274 275 275 276 277 277 278 279 282 283 280 279 279 279 279 280 281 281 280 280 278 277 276 275 275 275 276 277 277 276 276 276 275 273
271 271 271 271 272 273 270 272 272 272 272 273 273 274 276 277 279 280 281 281 280 277 277 277 278 279 279 279 277 277 276 275 274 273 273 273 273 273 273 274 274 274 275
269 269 270 270 271 271 271 272 273 272 272 272 272 272 273 275 276 278 278 278 278 275 277 277 277 277 276 275 276 276 273 273 272 271 271 271 271 272 272 272 272 272 272
267 269 270 270 270 271 271 272 273 274 272 272 271 270 271 273 276 277 276 275 275 273 273 273 275 274 274 273 271 271 271 271 270 269 269 270 270 270 269 270 269 269 267
267 268 268 269 267 268 269 270 272 275 276 275 271 272 272 272 276 278 277 276 275 275 269 269 269 269 268 268 268 268 269 269 268 268 268 267 268 268 268 268 268 267 265
265 266 266 266 266 266 266 267 272 274 275 276 276 276 275 277 278 277 276 276 275 273 266 265 265 265 265 265 265 266 267 266 266 266 266 266 266 266 266 266 266 265 264
261 263 264 264 264 264 264 264 263 267 271 272 272 274 274 275 276 275 275 273 272 267 262 263 263 263 263 263 263 263 263 264 264 264 264 264 264 264 263 264 264 264 263
258 261 262 262 261 262 262 262 262 261 261 263 267 270 271 273 274 273 272 266 261 261 259 259 259 260 260 261 261 261 261 261 261 262 262 262 262 261 261 262 262 261 262
260 261 260 260 260 260 260 259 259 258 258 259 260 264 264 268 270 269 267 259 258 258 257 257 257 257 258 258 258 258 258 258 259 259 259 259 260 260 260 260 261 260 261
256 258 259 257 257 257 256 256 257 256 257 256 258 258 259 260 260 258 258 256 256 256 256 255 257 257 257 256 256 256 256 256 257 257 258 259 260 260 260 260 261 261 262
255 255 255 254 253 254 254 253 254 253 253 254 256 256 267 261 258 255 254 254 254 254 255 255 255 255 255 254 254 255 254 256 257 257 258 259 259 259 260 261 261 261 262
251 251 249 250 252 252 251 251 251 250 251 251 253 252 264 254 254 253 253 253 254 254 254 253 254 254 255 254 255 255 255 255 256 257 257 257 258 259 260 260 261 261 261
249 249 249 248 247 249 248 248 250 251 252 252 253 253 252 252 252 252 253 254 253 253 254 252 252 253 254 253 254 254 254 256 257 257 257 257 258 259 259 260 260 260 261
245 246 247 249 247 247 249 250 250 252 252 252 250 251 251 252 252 253 253 253 253 253 252 251 251 252 253 254 255 254 255 255 257 257 256 256 257 258 259 259 260 260 261
243 244 245 247 247 249 249 250 250 250 250 250 251 249 250 251 251 252 253 252 251 252 252 252 252 252 252 252 253 254 255 256 256 257 257 257 257 257 257 258 259 260 261
244 244 245 246 246 248 248 249 250 250 250 252 251 251 251 252 252 252 253 252 252 252 252 253 253 252 252 253 254 255 258 261 261 261 262 262 261 262 263 264 265 265 266
Wind_Speed
11 10 9 9 9 8 8 8 9 9 9 10 10 10 9 9 8 9 10 12 12 12 11 12 14 13 11 11 11 10 11 11 12 7 2 3 7 13 9 6 6 6 4
11 10 10 10 10 10 10 11 10 11 10 10 10 10 10 9 9 9 11 10 11 10 10 11 14 10 13 13 9 12 11 10 9 12 6 4 7 7 7 8 5 5 3
11 11 11 12 13 12 12 12 12 12 12 11 10 11 11 10 10 10 10 11 12 12 10 10 10 10 11 10 9 9 9 8 9 8 4 1 1 3 4 4 3 3 2
10 10 10 12 12 12 12 12 11 11 11 12 11 11 11 11 10 11 11 10 11 10 11 9 7 5 5 5 4 6 4 4 3 6 1 1 2 2 2 1 3 2 2
10 10 11 11 11 11 11 11 11 11 10 10 11 10 9 8 9 12 10 10 10 10 8 6 6 7 8 7 3 3 3 3 2 2 1 2 2 3 3 3 2 2 2
9 9 10 11 11 11 11 12 11 11 11 11 11 10 11 8 20 20 15 8 8 7 8 7 8 9 9 9 6 3 2 3 3 3 2 1 3 3 1 2 1 1 2
8 9 10 11 12 11 11 11 11 12 11 10 11 10 10 12 23 21 18 9 9 11 11 8 8 8 8 7 13 15 15 19 14 1 2 2 2 3 3 3 1 1 3
8 9 10 11 12 12 11 11 10 9 10 8 9 10 9 10 24 23 17 9 9 11 11 11 10 11 13 8 7 9 11 12 10 7 9 6 6 4 4 2 2 3 3
9 9 10 10 11 11 12 12 10 9 8 8 8 9 10 10 22 22 15 8 8 9 9 11 9 10 16 13 7 7 7 8 11 15 13 12 10 10 5 1 1 1 2
9 9 9 9 9 9 10 10 8 8 7 6 7 8 8 10 18 20 16 7 8 6 7 9 16 12 16 16 10 8 7 8 8 8 7 7 7 8 13 8 4 2 2
8 8 7 7 7 7 8 6 8 7 6 6 6 7 8 10 11 17 17 9 7 7 7 7 8 15 15 15 14 10 9 6 8 6 5 5 6 7 6 6 6 4 3
7 6 6 6 5 5 5 6 6 6 6 6 6 6 6 7 12 14 16 15 13 6 6 5 6 11 12 14 9 12 10 7 4 4 4 5 5 5 5 5 5 4 4
7 6 5 6 6 6 5 6 4 5 5 5 5 6 6 6 6 12 15 16 14 7 6 8 9 11 11 9 12 12 8 6 5 4 4 3 4 4 4 4 5 7 7
7 7 6 6 7 5 4 4 4 4 3 3 4 5 5 6 4 4 5 5 9 6 7 6 9 10 11 9 7 8 6 6 5 5 4 4 3 4 4 5 5 5 6
6 5 6 5 6 6 6 4 5 5 7 6 1 2 5 6 6 12 10 6 6 7 4 4 4 4 5 6 5 5 5 5 5 6 5 5 5 5 4 5 4 5 4
6 5 5 4 5 5 5 6 10 10 11 10 12 9 4 12 13 14 14 13 13 11 3 3 4 5 5 5 5 5 5 6 6 6 6 5 5 5 6 6 5 5 7
4 5 4 5 5 4 4 5 7 7 10 9 11 12 11 13 13 13 13 12 10 6 2 4 4 4 5 5 5 6 6 6 7 6 6 6 6 6 7 6 7 7 7
3 5 3 4 4 4 3 4 3 3 6 6 8 12 9 13 12 12 12 7 4 5 3 3 4 5 5 5 5 5 6 6 6 6 6 6 6 6 7 7 7 8 8
4 3 3 3 4 4 3 3 3 3 3 4 4 6 7 13 11 10 8 2 2 3 2 3 3 4 4 5 5 5 6 6 6 6 5 6 6 5 7 7 8 10 11
3 5 3 3 3 4 3 3 3 3 4 4 4 4 5 4 3 3 2 2 2 3 4 4 4 4 4 4 5 5 6 6 6 6 6 7 7 6 7 8 7 9 9
3 4 4 3 3 3 3 3 3 3 4 4 5 4 14 2 4 3 4 4 3 4 4 4 5 5 5 5 5 5 5 7 7 6 7 7 6 7 7 8 9 10 11
2 3 2 3 3 3 3 3 3 4 4 4 5 4 14 3 4 4 4 4 4 4 4 4 5 5 5 5 6 6 6 7 7 7 8 7 7 8 8 9 10 10 11
3 3 3 3 2 4 3 3 3 4 4 5 5 5 4 4 4 4 5 5 5 5 5 4 5 6 5 6 6 6 7 8 8 7 8 8 8 9 9 10 11 11 11
2 3 3 4 3 3 4 5 4 5 5 5 5 5 5 5 5 6 6 6 5 5 4 5 5 8 8 7 6 6 7 9 8 9 10 9 10 11 10 11 12 14 13
2 3 3 4 4 4 4 5 5 5 5 4 6 4 4 5 6 6 6 5 5 6 7 5 5 8 10 11 12 13 14 17 13 13 8 11 14 16 14 12 15 14 16
3 3 4 3 4 4 4 5 6 5 6 6 6 6 6 6 7 6 6 6 6 6 7 6 7 10 12 11 13 15 16 18 16 17 12 12 13 13 13 15 20 14 17
Wind_Direction
7 3 8 9 5 1 3 358 352 339 340 335 329 322 316 311 305 294 280 275 261 258 251 248 250 250 244 244 236 234 236 231 242 244 169 197 185 178 190 177 178 182 185
357 359 2 0 3 1 355 351 347 342 340 335 331 327 324 318 313 302 297 292 283 277 270 258 256 248 249 245 234 231 230 222 236 244 191 198 208 175 178 183 203 171 181
358 1 3 1 358 356 350 346 344 341 339 338 336 332 328 324 319 312 304 299 295 290 283 279 277 268 253 245 232 231 226 227 232 234 201 107 145 263 135 150 220 190 174
357 1 1 356 350 346 343 342 341 338 336 337 336 331 329 328 333 332 320 311 302 295 294 295 297 296 293 308 277 259 250 242 208 237 196 161 150 103 95 172 199 228 257
353 357 354 345 343 341 344 341 340 341 340 334 334 341 347 359 356 341 326 309 306 306 307 316 333 339 318 292 278 241 231 247 220 202 268 136 154 146 196 138 179 255 231
353 353 347 345 343 345 344 339 342 345 348 348 355 357 9 2 355 350 347 336 340 347 342 5 18 11 359 4 330 355 308 215 189 273 145 224 167 121 150 108 177 86 263
353 351 352 347 342 340 336 339 346 345 348 3 6 9 9 5 3 4 7 13 20 16 18 21 28 19 18 29 50 58 50 49 42 352 115 45 104 76 112 141 179 227 255
359 354 351 346 340 336 336 342 342 342 345 358 10 13 10 5 12 8 11 27 43 38 36 30 31 28 26 23 37 50 52 50 44 40 50 46 55 61 60 56 15 298 278
358 350 349 345 340 342 345 341 341 339 349 354 10 11 10 4 10 15 13 6 30 40 35 34 33 30 24 29 40 62 68 50 52 57 57 53 52 48 48 79 101 285 294
348 340 339 341 343 346 342 338 333 338 354 358 4 7 8 5 6 11 17 3 10 11 32 24 31 26 35 35 32 21 49 41 28 26 28 32 39 49 52 40 22 4 337
329 327 333 338 331 345 346 343 343 342 353 6 360 358 3 2 1 12 20 22 11 18 25 25 25 37 41 45 55 54 58 45 31 39 36 35 39 36 33 22 12 352 316
322 319 323 328 335 347 347 345 350 0 4 357 354 355 352 348 356 9 17 24 21 25 20 24 21 30 33 46 46 49 50 58 50 47 35 37 31 24 8 1 347 331 307
325 324 328 333 338 340 340 340 351 360 12 6 4 358 345 337 349 20 17 15 17 22 14 18 23 26 33 29 32 33 29 27 28 44 45 34 7 351 337 334 334 335 317
327 332 339 343 343 340 337 329 328 341 341 352 2 354 338 333 334 354 4 7 13 23 12 15 26 25 29 30 19 18 13 14 12 13 358 355 349 347 345 342 324 327 307
327 335 343 342 339 335 338 319 328 326 336 347 293 317 343 328 356 359 357 351 3 359 10 9 21 17 22 20 15 11 7 6 8 360 351 340 341 339 334 338 325 326 311
332 335 339 334 336 333 333 330 338 346 338 348 346 338 343 331 349 349 358 351 3 5 38 17 16 18 17 5 358 355 358 358 355 342 335 334 330 324 319 318 309 298 299
318 315 322 333 324 329 340 339 329 333 344 348 348 340 344 330 347 349 356 355 6 27 40 16 12 3 352 349 351 349 335 333 328 329 323 320 317 310 311 309 306 300 294
303 300 311 310 309 309 325 316 310 321 327 324 338 335 344 336 341 350 358 5 357 12 13 350 337 338 338 334 329 323 318 318 319 316 309 304 300 303 305 297 295 288 289
312 307 315 305 302 306 314 314 306 308 300 300 318 331 342 338 339 1 22 39 341 331 329 320 308 311 312 310 307 304 303 302 301 299 291 287 287 283 281 272 274 271 272
300 295 306 302 308 315 315 311 312 308 303 300 308 306 312 328 352 331 334 328 313 294 297 293 299 298 296 297 297 293 296 291 289 284 283 284 283 270 273 275 274 278 277
281 293 290 305 290 283 279 284 290 295 289 294 292 290 305 8 320 300 302 299 290 287 289 289 291 286 284 283 283 287 281 287 282 278 279 279 279 280 271 269 272 270 270
265 273 280 271 287 297 286 285 287 285 285 290 292 295 321 320 299 286 286 282 280 271 269 273 280 276 279 279 281 280 278 277 278 273 273 274 272 271 271 271 272 270 270
293 294 298 290 274 288 292 279 286 282 282 282 289 296 301 296 289 284 283 284 283 285 283 275 277 285 269 259 252 253 266 272 272 270 273 276 275 272 271 271 271 272 269
276 273 277 286 297 285 287 290 286 279 276 279 282 282 280 282 285 288 286 287 287 284 270 267 261 269 284 283 275 260 254 261 264 264 258 265 270 275 271 269 269 269 271
272 281 276 274 278 277 291 282 281 281 281 278 287 277 281 282 283 279 278 278 278 283 284 274 268 271 273 277 280 279 275 276 266 263 263 258 260 264 263 264 266 269 267
266 257 261 273 272 266 267 280 282 281 283 288 282 282 280 287 286 283 283 281 284 282 283 280 274 270 277 282 278 279 281 284 282 275 259 252 256 261 262 263 267 269 275